CW3846 Weather Reports


Display with metric or nautical units.
time (UTC)temp
F
wind
direction
speed
MPH
gust
MPH
rain 1hr
in
rain 24hr
in
rain mn
in
humidity
%
barometer
mb
20260906053526 88 0 0.0 0.0 0.00 0.00 0.00 27 1011.5
20260906053051 88 0 0.0 0.0 0.00 0.00 0.00 27 1011.5
20260906052531 88 0 0.0 0.0 0.00 0.00 0.00 27 1011.5
20260906052027 88 0 0.0 0.0 0.00 0.00 0.00 27 1011.6
20260906051554 88 0 0.0 0.0 0.00 0.00 0.00 27 1011.7
20260906051034 89 0 0.0 0.0 0.00 0.00 0.00 27 1011.7
20260906050529 89 0 0.0 0.0 0.00 0.00 0.00 28 1011.6
20260906050108 89 0 0.0 0.0 0.00 0.00 0.00 27 1011.7
20260906045530 89 0 0.0 0.0 0.00 0.00 0.00 27 1011.7
20260906045028 89 0 0.0 0.0 0.00 0.00 0.00 27 1011.6
20260906044550 89 0 0.0 0.0 0.00 0.00 0.00 27 1011.6
20260906044029 89 0 0.0 0.0 0.00 0.00 0.00 27 1011.6
20260906043530 89 0 0.0 0.0 0.00 0.00 0.00 27 1011.7
20260906043101 90 0 0.0 0.0 0.00 0.00 0.00 27 1011.6
20260906042529 90 0 0.0 0.0 0.00 0.00 0.00 27 1011.5
20260906042031 90 0 0.0 0.0 0.00 0.00 0.00 27 1011.7
20260906041546 90 0 0.0 0.0 0.00 0.00 0.00 27 1011.7
20260906041029 90 0 0.0 0.0 0.00 0.00 0.00 27 1011.7
20260906040530 91 0 0.0 0.0 0.00 0.00 0.00 27 1011.8
20260906040113 91 0 0.0 0.0 0.00 0.00 0.00 26 1011.8
20260906035528 91 0 0.0 0.0 0.00 0.00 0.00 26 1011.6
20260906035028 91 0 0.0 0.0 0.00 0.00 0.00 26 1011.6
20260906034550 91 0 0.0 0.0 0.00 0.00 0.00 25 1011.5
20260906034030 91 0 0.0 0.0 0.00 0.00 0.00 25 1011.4
20260906033530 91 0 0.0 0.0 0.00 0.00 0.00 25 1011.3
20260906033051 92 0 0.0 0.0 0.00 0.00 0.00 25 1011.3
20260906032528 92 0 0.0 0.0 0.00 0.00 0.00 25 1011.2
20260906032031 92 0 0.0 0.0 0.00 0.00 0.00 25 1011.1
20260906031603 92 0 0.0 0.0 0.00 0.00 0.00 24 1011.1
20260906031119 92 0 0.0 0.0 0.00 0.00 0.00 24 1010.9
20260906030533 92 0 0.0 0.0 0.00 0.00 0.00 24 1010.8
20260906030104 92 0 0.0 0.0 0.00 0.00 0.00 24 1010.8
20260906025532 92 0 0.0 0.0 0.00 0.00 0.00 24 1010.8
20260906025033 92 0 0.0 0.0 0.00 0.00 0.00 24 1010.8
20260906024547 92 0 0.0 0.0 0.00 0.00 0.00 23 1010.8
20260906024030 93 0 0.0 0.0 0.00 0.00 0.00 23 1010.8
20260906023531 93 0 0.0 0.0 0.00 0.00 0.00 23 1010.7
20260906023102 93 0 0.0 0.0 0.00 0.00 0.00 23 1010.7
20260906022532 93 0 0.0 0.0 0.00 0.00 0.00 23 1010.7
20260906022031 93 0 0.0 2.0 0.00 0.00 0.00 23 1010.7
20260906021555 93 0 0.0 2.0 0.00 0.00 0.00 23 1010.7
20260906021030 93 0 0.0 0.0 0.00 0.00 0.00 23 1010.8
20260906020533 93 0 0.0 0.0 0.00 0.00 0.00 23 1010.8
20260906020053 94 0 0.0 2.0 0.00 0.00 0.00 23 1010.8
20260906015531 94 0 0.0 2.0 0.00 0.00 0.00 23 1010.7
20260906015032 94 0 0.0 0.0 0.00 0.00 0.00 23 1010.7
20260906014623 94 0 0.0 0.0 0.00 0.00 0.00 23 1010.8
20260906014031 94 0 0.0 0.0 0.00 0.00 0.00 23 1010.9
20260906013531 95 0 0.0 0.0 0.00 0.00 0.00 23 1010.9
20260906013059 95 0 0.0 0.0 0.00 0.00 0.00 22 1010.9
20260906012532 95 0 0.0 1.0 0.00 0.00 0.00 22 1011.0
20260906012032 95 0 0.0 1.0 0.00 0.00 0.00 22 1011.0
20260906011559 95 0 0.0 2.0 0.00 0.00 0.00 21 1011.0
20260906011033 96 0 0.0 3.0 0.00 0.00 0.00 21 1011.1
20260906010532 96 0 0.0 3.0 0.00 0.00 0.00 21 1011.1
20260906010053 96 0 0.0 2.0 0.00 0.00 0.00 21 1011.1
20260906005532 96 0 0.0 3.0 0.00 0.00 0.00 21 1011.1
20260906005032 96 107 0.0 3.0 0.00 0.00 0.00 21 1011.0
20260906004608 97 0 0.0 3.0 0.00 0.00 0.00 21 1011.0
20260906004031 97 0 0.0 2.0 0.00 0.00 0.00 21 1010.9
20260906003534 97 0 0.0 4.0 0.00 0.00 0.00 21 1010.9
20260906003056 97 0 0.0 4.0 0.00 0.00 0.00 21 1010.9
20260906002528 97 0 0.0 1.0 0.00 0.00 0.00 21 1010.9
20260906002034 97 0 0.0 3.0 0.00 0.00 0.00 21 1010.9
20260906001553 97 0 0.0 3.0 0.00 0.00 0.00 20 1010.9
20260906001031 97 0 0.0 2.0 0.00 0.00 0.00 20 1010.9
20260906000530 98 0 0.0 2.0 0.00 0.00 0.00 20 1010.9
20260906000056 98 0 0.0 1.0 0.00 0.00 0.00 21 1010.8
20260905235535 98 0 0.0 1.0 0.00 0.00 0.00 20 1010.8
20260905235030 98 0 0.0 1.0 0.00 0.00 0.00 20 1010.9
20260905234554 98 0 0.0 3.0 0.00 0.00 0.00 19 1010.9
20260905234032 98 0 0.0 4.0 0.00 0.00 0.00 20 1010.9
20260905233533 99 0 0.0 4.0 0.00 0.00 0.00 19 1010.9
20260905233057 99 0 0.0 7.0 0.00 0.00 0.00 19 1010.9
20260905232532 99 0 1.0 7.0 0.00 0.00 0.00 19 1010.8
20260905232031 99 0 1.0 7.0 0.00 0.00 0.00 19 1010.8
20260905231554 99 0 0.0 4.0 0.00 0.00 0.00 19 1011.0
20260905231033 99 0 0.0 6.0 0.00 0.00 0.00 19 1010.9
20260905230531 99 0 0.0 6.0 0.00 0.00 0.00 18 1010.9
20260905230109 99 0 0.0 8.0 0.00 0.00 0.00 18 1010.9
20260905225530 100 0 2.0 8.0 0.00 0.00 0.00 18 1011.0
20260905225032 99 0 0.0 6.0 0.00 0.00 0.00 18 1011.0
20260905224605 99 103 0.0 8.0 0.00 0.00 0.00 19 1011.1
20260905224031 99 0 1.0 10.0 0.00 0.00 0.00 18 1011.1
20260905223530 100 106 2.0 10.0 0.00 0.00 0.00 17 1011.2
20260905223053 100 0 0.0 8.0 0.00 0.00 0.00 18 1011.1
20260905222532 100 0 1.0 9.0 0.00 0.00 0.00 17 1011.1
20260905222031 100 0 2.0 9.0 0.00 0.00 0.00 18 1011.1
20260905221549 99 105 2.0 8.0 0.00 0.00 0.00 19 1011.2
20260905221030 99 108 0.0 8.0 0.00 0.00 0.00 19 1011.3
20260905220530 99 0 2.0 8.0 0.00 0.00 0.00 19 1011.4
20260905220106 99 115 2.0 7.0 0.00 0.00 0.00 18 1011.5
20260905215533 99 0 0.0 7.0 0.00 0.00 0.00 18 1011.5
20260905215034 99 0 1.0 8.0 0.00 0.00 0.00 18 1011.7
20260905214553 99 105 0.0 10.0 0.00 0.00 0.00 18 1011.7
20260905214028 100 0 4.0 10.0 0.00 0.00 0.00 17 1011.8
20260905213532 101 0 0.0 10.0 0.00 0.00 0.00 18 1011.8
20260905213052 101 103 1.0 10.0 0.00 0.00 0.00 17 1011.8
20260905212532 101 102 2.0 10.0 0.00 0.00 0.00 16 1011.9
20260905212032 101 113 1.0 7.0 0.00 0.00 0.00 16 1011.9
20260905211557 100 104 2.0 8.0 0.00 0.00 0.00 17 1012.0
20260905211032 101 111 1.0 8.0 0.00 0.00 0.00 17 1012.1
20260905210531 101 55 0.0 4.0 0.00 0.00 0.00 17 1012.2
20260905210055 101 0 0.0 4.0 0.00 0.00 0.00 17 1012.2
20260905205531 102 112 1.0 4.0 0.00 0.00 0.00 16 1012.2
20260905205032 102 0 0.0 12.0 0.00 0.00 0.00 16 1012.3
20260905204552 103 0 3.0 12.0 0.00 0.00 0.00 16 1012.3
20260905204029 102 0 0.0 1.0 0.00 0.00 0.00 16 1012.3
20260905203532 102 0 0.0 2.0 0.00 0.00 0.00 16 1012.4
20260905203059 102 0 0.0 2.0 0.00 0.00 0.00 17 1012.4
20260905202533 102 0 0.0 1.0 0.00 0.00 0.00 17 1012.5
20260905202031 101 0 0.0 1.0 0.00 0.00 0.00 17 1012.7
20260905201557 101 0 0.0 1.0 0.00 0.00 0.00 17 1012.5
20260905201033 101 0 0.0 7.0 0.00 0.00 0.00 17 1012.6
20260905200531 101 0 0.0 7.0 0.00 0.00 0.00 18 1012.8
20260905200058 100 0 0.0 7.0 0.00 0.00 0.00 18 1012.8
20260905195534 100 0 0.0 0.0 0.00 0.00 0.00 18 1012.9
20260905195032 100 0 0.0 0.0 0.00 0.00 0.00 18 1013.0
20260905194551 100 0 0.0 0.0 0.00 0.00 0.00 18 1013.1
20260905194031 100 0 0.0 0.0 0.00 0.00 0.00 18 1013.2
20260905193531 99 0 0.0 0.0 0.00 0.00 0.00 18 1013.2
20260905193047 99 0 0.0 0.0 0.00 0.00 0.00 18 1013.3
20260905192533 99 0 0.0 0.0 0.00 0.00 0.00 18 1013.2
20260905192030 99 0 0.0 0.0 0.00 0.00 0.00 19 1013.2
20260905191546 99 0 0.0 0.0 0.00 0.00 0.00 18 1013.4
20260905191032 98 0 0.0 0.0 0.00 0.00 0.00 19 1013.4
20260905190529 98 0 0.0 0.0 0.00 0.00 0.00 19 1013.6
20260905185531 98 0 0.0 0.0 0.00 0.00 0.00 19 1013.8
20260905185028 97 0 0.0 0.0 0.00 0.00 0.00 19 1013.9
20260905184601 97 0 0.0 0.0 0.00 0.00 0.00 20 1013.8
20260905184056 97 0 0.0 0.0 0.00 0.00 0.00 21 1014.0
20260905181602 95 0 0.0 0.0 0.00 0.00 0.00 21 1014.2
20260905181031 95 0 0.0 0.0 0.00 0.00 0.00 22 1014.2
20260905180931 95 0 0.0 0.0 0.00 0.00 0.00 22 1014.3
20260905161031 86 0 0.0 0.0 0.00 0.00 0.00 33 1014.1
20260905160532 86 0 0.0 0.0 0.00 0.00 0.00 39 1014.1
20260905160053 86 0 0.0 0.0 0.00 0.00 0.00 38 1014.1
20260905155532 86 0 0.0 0.0 0.00 0.00 0.00 35 1014.1
20260905155031 86 0 0.0 0.0 0.00 0.00 0.00 34 1014.1
20260905154550 85 0 0.0 0.0 0.00 0.00 0.00 36 1014.1
20260905154032 85 0 0.0 0.0 0.00 0.00 0.00 37 1014.0
20260905153530 85 0 0.0 0.0 0.00 0.00 0.00 38 1014.0
20260905153057 85 0 0.0 0.0 0.00 0.00 0.00 37 1013.9
20260905152529 85 0 0.0 0.0 0.00 0.00 0.00 38 1013.8
20260905152032 84 0 0.0 0.0 0.00 0.00 0.00 39 1013.7
20260905151556 84 0 0.0 0.0 0.00 0.00 0.00 39 1013.8
20260905151031 84 0 0.0 0.0 0.00 0.00 0.00 40 1013.9
20260905150530 84 0 0.0 0.0 0.00 0.00 0.00 40 1013.8
20260905150054 84 0 0.0 0.0 0.00 0.00 0.00 39 1013.7
20260905145531 84 0 0.0 0.0 0.00 0.00 0.00 41 1013.7
20260905145030 83 0 0.0 0.0 0.00 0.00 0.00 42 1013.8
20260905144549 83 0 0.0 0.0 0.00 0.00 0.00 40 1013.7
20260905144030 83 0 0.0 0.0 0.00 0.00 0.00 43 1013.7
20260905143532 83 0 0.0 0.0 0.00 0.00 0.00 42 1013.6
20260905143046 83 0 0.0 0.0 0.00 0.00 0.00 42 1013.6
20260905142532 83 0 0.0 0.0 0.00 0.00 0.00 41 1013.5
20260905142029 83 0 0.0 0.0 0.00 0.00 0.00 40 1013.5
20260905141557 83 0 0.0 0.0 0.00 0.00 0.00 43 1013.5
20260905141030 83 0 0.0 0.0 0.00 0.00 0.00 42 1013.4
20260905140534 83 0 0.0 0.0 0.00 0.00 0.00 39 1013.4
20260905140104 83 0 0.0 0.0 0.00 0.00 0.00 38 1013.3
20260905135531 82 0 0.0 0.0 0.00 0.00 0.00 38 1013.2
20260905135029 82 0 0.0 0.0 0.00 0.00 0.00 38 1013.1
20260905134547 82 0 0.0 0.0 0.00 0.00 0.00 38 1013.1
20260905134030 82 0 0.0 0.0 0.00 0.00 0.00 38 1013.1
20260905133529 82 0 0.0 0.0 0.00 0.00 0.00 37 1013.1
20260905133102 82 0 0.0 0.0 0.00 0.00 0.00 38 1012.9
20260905132532 82 0 0.0 0.0 0.00 0.00 0.00 37 1013.0
20260905132032 82 0 0.0 0.0 0.00 0.00 0.00 36 1012.9
20260905131605 82 0 0.0 0.0 0.00 0.00 0.00 36 1012.9
20260905131030 82 0 0.0 0.0 0.00 0.00 0.00 36 1012.8
20260905130530 82 0 0.0 0.0 0.00 0.00 0.00 36 1012.8
20260905130054 82 0 0.0 0.0 0.00 0.00 0.00 37 1012.7
20260905125530 82 0 0.0 0.0 0.00 0.00 0.00 37 1012.7
20260905125032 82 0 0.0 0.0 0.00 0.00 0.00 36 1012.5
20260905124556 82 0 0.0 0.0 0.00 0.00 0.00 36 1012.6
20260905124033 82 0 0.0 0.0 0.00 0.00 0.00 36 1012.6
20260905123531 82 0 0.0 0.0 0.00 0.00 0.00 37 1012.4
20260905123050 82 0 0.0 0.0 0.00 0.00 0.00 37 1012.3
20260905122530 82 0 0.0 0.0 0.00 0.00 0.00 37 1012.4
20260905122032 83 0 0.0 0.0 0.00 0.00 0.00 37 1012.4
20260905121554 83 0 0.0 0.0 0.00 0.00 0.00 36 1012.2
20260905121028 83 0 0.0 0.0 0.00 0.00 0.00 35 1012.2
20260905120530 83 0 0.0 0.0 0.00 0.00 0.00 36 1012.2
20260905120106 83 0 0.0 0.0 0.00 0.00 0.00 35 1012.2
20260905115534 83 0 0.0 0.0 0.00 0.00 0.00 35 1012.2
20260905115031 83 0 0.0 0.0 0.00 0.00 0.00 35 1012.2
20260905114551 83 0 0.0 0.0 0.00 0.00 0.00 35 1012.0
20260905114031 83 0 0.0 0.0 0.00 0.00 0.00 35 1012.0
20260905113533 83 0 0.0 0.0 0.00 0.00 0.00 35 1012.1
20260905113049 83 0 0.0 0.0 0.00 0.00 0.00 35 1012.0
20260905112532 83 0 0.0 0.0 0.00 0.00 0.00 35 1011.9
20260905112029 82 0 0.0 0.0 0.00 0.00 0.00 35 1011.9
20260905111605 82 0 0.0 0.0 0.00 0.00 0.00 35 1012.0
20260905111028 82 0 0.0 0.0 0.00 0.00 0.00 35 1012.0
20260905110528 82 0 0.0 0.0 0.00 0.00 0.00 35 1012.0
20260905110058 82 0 0.0 0.0 0.00 0.00 0.00 35 1012.0
20260905105532 82 0 0.0 0.0 0.00 0.00 0.00 35 1012.0
20260905105032 82 0 0.0 0.0 0.00 0.00 0.00 35 1012.1
20260905104554 83 0 0.0 0.0 0.00 0.00 0.00 35 1012.1
20260905104031 83 0 0.0 0.0 0.00 0.00 0.00 35 1011.9
20260905103531 83 0 0.0 0.0 0.00 0.00 0.00 36 1012.0
20260905103049 83 0 0.0 0.0 0.00 0.00 0.00 36 1011.9
20260905102530 83 0 0.0 0.0 0.00 0.00 0.00 37 1011.8
20260905102031 83 0 0.0 0.0 0.00 0.00 0.00 37 1011.8
20260905101559 84 0 0.0 0.0 0.00 0.00 0.00 35 1011.7
20260905101029 84 0 0.0 0.0 0.00 0.00 0.00 35 1011.7
20260905100530 84 0 0.0 0.0 0.00 0.00 0.00 34 1011.7
20260905100056 84 0 0.0 0.0 0.00 0.00 0.00 35 1011.8
20260905095533 84 0 0.0 0.0 0.00 0.00 0.00 34 1011.7
20260905095031 84 0 0.0 0.0 0.00 0.00 0.00 34 1011.8
20260905094552 84 0 0.0 0.0 0.00 0.00 0.00 34 1011.9
20260905094033 84 0 0.0 0.0 0.00 0.00 0.00 34 1011.9
20260905093531 84 0 0.0 0.0 0.00 0.00 0.00 34 1012.0
20260905093058 84 0 0.0 0.0 0.00 0.00 0.00 34 1011.8
20260905092529 84 0 0.0 0.0 0.00 0.00 0.00 34 1011.8
20260905092032 84 0 0.0 0.0 0.00 0.00 0.00 34 1011.9
20260905091555 84 0 0.0 0.0 0.00 0.00 0.00 34 1011.8
20260905091031 85 0 0.0 0.0 0.00 0.00 0.00 33 1011.8
20260905090531 85 0 0.0 0.0 0.00 0.00 0.00 33 1011.8
20260905090047 85 0 0.0 0.0 0.00 0.00 0.00 33 1011.8
20260905085531 85 0 0.0 0.0 0.00 0.00 0.00 33 1011.8
20260905085031 85 0 0.0 0.0 0.00 0.00 0.00 35 1011.8
20260905084603 85 0 0.0 0.0 0.00 0.00 0.00 33 1011.8
20260905084031 85 0 0.0 0.0 0.00 0.00 0.00 32 1011.9
20260905083534 86 0 0.0 0.0 0.00 0.00 0.00 32 1011.9
20260905083052 86 0 0.0 0.0 0.00 0.00 0.00 32 1011.9
20260905082531 86 0 0.0 0.0 0.00 0.00 0.00 32 1011.9
20260905082034 86 0 0.0 0.0 0.00 0.00 0.00 32 1011.8
20260905081545 86 0 0.0 0.0 0.00 0.00 0.00 32 1011.9
20260905081029 86 0 0.0 0.0 0.00 0.00 0.00 32 1011.9
20260905080530 87 0 0.0 0.0 0.00 0.00 0.00 31 1011.9
20260905080047 87 0 0.0 0.0 0.00 0.00 0.00 31 1012.0
20260905075529 87 0 0.0 0.0 0.00 0.00 0.00 31 1012.1
20260905075029 87 0 0.0 0.0 0.00 0.00 0.00 30 1012.0
20260905074558 87 0 0.0 0.0 0.00 0.00 0.00 30 1012.0
20260905074030 88 0 0.0 0.0 0.00 0.00 0.00 30 1012.0
20260905073531 88 0 0.0 0.0 0.00 0.00 0.00 29 1012.0
20260905073100 88 0 0.0 0.0 0.00 0.00 0.00 29 1012.0
20260905072529 88 0 0.0 0.0 0.00 0.00 0.00 28 1012.0
20260905072031 89 0 0.0 0.0 0.00 0.00 0.00 29 1011.8
20260905071547 89 0 0.0 0.0 0.00 0.00 0.00 29 1011.8
20260905071134 89 0 0.0 0.0 0.00 0.00 0.00 28 1011.8
20260905070530 90 0 0.0 0.0 0.00 0.00 0.00 27 1011.9
20260905070048 90 0 0.0 0.0 0.00 0.00 0.00 27 1011.9
20260905065529 90 0 0.0 0.0 0.00 0.00 0.00 28 1011.9
20260905065028 90 0 0.0 0.0 0.00 0.00 0.00 28 1011.8
20260905064555 91 0 0.0 0.0 0.00 0.00 0.00 27 1011.8
20260905064029 91 0 0.0 0.0 0.00 0.00 0.00 27 1011.8
20260905063528 91 0 0.0 0.0 0.00 0.00 0.00 27 1011.8
20260905063050 91 0 0.0 0.0 0.00 0.00 0.00 26 1011.8
20260905062535 91 0 0.0 0.0 0.00 0.00 0.00 26 1011.7
20260905062030 91 0 0.0 0.0 0.00 0.00 0.00 26 1011.7
20260905061546 91 0 0.0 0.0 0.00 0.00 0.00 26 1011.7
20260905061030 91 0 0.0 0.0 0.00 0.00 0.00 26 1011.7
20260905060529 91 0 0.0 0.0 0.00 0.00 0.00 26 1011.7
20260905060054 91 0 0.0 0.0 0.00 0.00 0.00 26 1011.7
20260905055529 91 0 0.0 0.0 0.00 0.00 0.00 26 1011.7
20260905055030 91 0 0.0 0.0 0.00 0.00 0.00 25 1011.6
20260905054547 91 0 0.0 0.0 0.00 0.00 0.00 25 1011.7
20260905054028 91 0 0.0 0.0 0.00 0.00 0.00 25 1011.6